カタログに戻る

STARLINK-31684

運用中通信VLEO
NORAD 59492·PAYLOAD·🇺🇸 United States

打ち上げ Apr 13, 2024 から Cape Canaveral Space Force Station

Loading…

次のパス (今後24時間)

TLE

最新Source: CelesTrak SupGP

元期: Sep 15, 2026, 02:14 UTC

1 59492C 24071J   26258.09354167  .00023817  00000+0  86255-3 0  2588
2 59492  43.0021 357.7067 0001569 263.1759 125.5685 15.27570134    18

AllMySatでSTARLINK-31684をリアルタイム追跡

Download on the App Store